Time,TemperatureF,DewpointF,PressureIn,WindDirection,WindDirectionDegrees,WindSpeedMPH,WindSpeedGustMPH,Humidity,HourlyPrecipIn,Conditions,Clouds,dailyrainin,SoftwareType,DateUTC
2013-03-08 00:02:00,32.0,31.0,30.08,NE,47,4.0,6.0,95,0.00,,,0.03,,2013-03-08 05:02:00,
2013-03-08 00:12:00,32.0,31.0,30.08,NE,47,4.0,6.0,95,0.00,,,0.03,,2013-03-08 05:12:00,
2013-03-08 00:22:00,32.0,31.0,30.08,ESE,115,3.0,7.0,95,0.00,,,0.03,,2013-03-08 05:22:00,
2013-03-08 00:33:00,32.0,31.0,30.08,ENE,64,2.0,7.0,95,0.00,,,0.03,,2013-03-08 05:33:00,
2013-03-08 00:42:00,32.0,31.0,30.08,ENE,64,2.0,7.0,95,0.00,,,0.03,,2013-03-08 05:42:00,
2013-03-08 00:52:00,32.0,31.0,30.08,NE,53,3.0,7.0,95,0.00,,,0.03,,2013-03-08 05:52:00,
2013-03-08 01:01:00,32.0,31.0,30.08,ENE,65,1.0,6.0,95,0.00,,,0.03,,2013-03-08 06:01:00,
2013-03-08 01:11:00,32.0,31.0,30.08,ENE,65,1.0,6.0,95,0.00,,,0.03,,2013-03-08 06:11:00,
2013-03-08 01:22:00,32.0,31.0,30.08,NE,36,3.0,6.0,95,0.00,,,0.03,,2013-03-08 06:22:00,
2013-03-08 01:32:00,32.0,31.0,30.08,ENE,60,2.0,6.0,95,0.00,,,0.03,,2013-03-08 06:32:00,
2013-03-08 01:42:00,32.0,31.0,30.08,ENE,60,2.0,6.0,95,0.00,,,0.03,,2013-03-08 06:42:00,
2013-03-08 01:52:00,32.0,31.0,30.08,NE,40,2.0,8.0,95,0.00,,,0.03,,2013-03-08 06:52:00,
2013-03-08 02:01:00,32.0,31.0,30.08,NE,36,2.0,5.0,95,0.00,,,0.03,,2013-03-08 07:01:00,
2013-03-08 02:11:00,32.0,31.0,30.08,NE,36,2.0,5.0,95,0.00,,,0.03,,2013-03-08 07:11:00,
2013-03-08 02:22:00,32.0,31.0,30.07,NNE,26,2.0,6.0,95,0.00,,,0.03,,2013-03-08 07:22:00,
2013-03-08 02:32:00,32.0,31.0,30.07,NW,323,3.0,7.0,95,0.00,,,0.03,,2013-03-08 07:32:00,
2013-03-08 02:42:00,32.0,31.0,30.07,NW,323,3.0,7.0,95,0.00,,,0.03,,2013-03-08 07:42:00,
2013-03-08 02:52:00,32.0,31.0,30.06,NE,41,2.0,7.0,95,0.00,,,0.03,,2013-03-08 07:52:00,
2013-03-08 03:01:00,31.0,30.0,30.06,NE,54,4.0,6.0,95,0.00,,,0.03,,2013-03-08 08:01:00,
2013-03-08 03:11:00,31.0,30.0,30.06,NE,54,4.0,6.0,95,0.00,,,0.03,,2013-03-08 08:11:00,
2013-03-08 03:22:00,31.0,30.0,30.06,ENE,64,4.0,9.0,95,0.00,,,0.03,,2013-03-08 08:22:00,
2013-03-08 03:32:00,31.0,30.0,30.06,NNE,15,4.0,11.0,95,0.00,,,0.03,,2013-03-08 08:32:00,
2013-03-08 03:42:00,31.0,30.0,30.06,NNE,15,4.0,11.0,95,0.00,,,0.03,,2013-03-08 08:42:00,
2013-03-08 03:52:00,31.0,30.0,30.06,ENE,76,4.0,8.0,95,0.00,,,0.03,,2013-03-08 08:52:00,
2013-03-08 04:03:00,31.0,30.0,30.06,NNW,341,3.0,9.0,95,0.00,,,0.03,,2013-03-08 09:03:00,
2013-03-08 04:11:00,31.0,30.0,30.06,NNW,341,3.0,9.0,95,0.00,,,0.03,,2013-03-08 09:11:00,
2013-03-08 04:22:00,31.0,30.0,30.05,NNE,33,3.0,9.0,95,0.00,,,0.03,,2013-03-08 09:22:00,
2013-03-08 04:32:00,31.0,30.0,30.05,WSW,238,4.0,14.0,95,0.00,,,0.03,,2013-03-08 09:32:00,
2013-03-08 04:42:00,31.0,30.0,30.05,WSW,238,4.0,14.0,95,0.00,,,0.03,,2013-03-08 09:42:00,
2013-03-08 04:52:00,31.0,30.0,30.06,NE,56,5.0,10.0,95,0.00,,,0.03,,2013-03-08 09:52:00,
2013-03-08 05:01:00,31.0,30.0,30.06,NNW,329,4.0,9.0,95,0.00,,,0.03,,2013-03-08 10:01:00,
2013-03-08 05:11:00,31.0,30.0,30.06,NNW,329,4.0,9.0,95,0.00,,,0.03,,2013-03-08 10:11:00,
2013-03-08 05:21:00,31.0,30.0,30.05,NNE,13,3.0,9.0,95,0.00,,,0.03,,2013-03-08 10:21:00,
2013-03-08 05:32:00,31.0,30.0,30.05,ENE,75,3.0,5.0,95,0.00,,,0.03,,2013-03-08 10:32:00,
2013-03-08 05:42:00,31.0,30.0,30.05,ENE,75,3.0,5.0,95,0.00,,,0.03,,2013-03-08 10:42:00,
2013-03-08 05:52:00,31.0,30.0,30.05,North,1,3.0,10.0,95,0.00,,,0.03,,2013-03-08 10:52:00,
2013-03-08 06:01:00,31.0,30.0,30.05,ENE,61,3.0,11.0,96,0.00,,,0.03,,2013-03-08 11:01:00,
2013-03-08 06:11:00,31.0,30.0,30.05,ENE,61,3.0,11.0,96,0.00,,,0.03,,2013-03-08 11:11:00,
2013-03-08 06:22:00,31.0,30.0,30.06,ENE,58,4.0,8.0,96,0.00,,,0.03,,2013-03-08 11:22:00,
2013-03-08 06:32:00,31.0,30.0,30.05,NE,42,3.0,11.0,96,0.00,,,0.03,,2013-03-08 11:32:00,
2013-03-08 06:42:00,31.0,30.0,30.05,NE,42,3.0,11.0,96,0.00,,,0.03,,2013-03-08 11:42:00,
2013-03-08 06:52:00,31.0,30.0,30.06,ENE,67,2.0,8.0,96,0.00,,,0.03,,2013-03-08 11:52:00,
2013-03-08 07:02:00,31.0,30.0,30.06,NE,41,4.0,8.0,96,0.00,,,0.03,,2013-03-08 12:02:00,
2013-03-08 07:11:00,31.0,30.0,30.06,NE,41,4.0,8.0,96,0.00,,,0.03,,2013-03-08 12:11:00,
2013-03-08 07:22:00,31.0,30.0,30.06,North,349,3.0,8.0,96,0.00,,,0.03,,2013-03-08 12:22:00,
2013-03-08 07:32:00,31.0,30.0,30.06,East,87,3.0,8.0,96,0.00,,,0.03,,2013-03-08 12:32:00,
2013-03-08 07:43:00,31.0,30.0,30.06,East,87,3.0,8.0,96,0.00,,,0.03,,2013-03-08 12:43:00,
2013-03-08 07:53:00,31.0,30.0,30.07,NE,41,3.0,18.0,96,0.00,,,0.03,,2013-03-08 12:53:00,
2013-03-08 08:01:00,31.0,30.0,30.07,East,79,4.0,9.0,96,0.00,,,0.03,,2013-03-08 13:01:00,
2013-03-08 08:11:00,31.0,30.0,30.07,East,79,4.0,9.0,96,0.00,,,0.03,,2013-03-08 13:11:00,
2013-03-08 08:22:00,31.0,30.0,30.07,NNW,333,3.0,11.0,96,0.00,,,0.03,,2013-03-08 13:22:00,
2013-03-08 08:32:00,31.0,30.0,30.07,NE,47,4.0,10.0,96,0.00,,,0.03,,2013-03-08 13:32:00,
2013-03-08 08:42:00,31.0,30.0,30.07,NE,47,4.0,10.0,96,0.00,,,0.03,,2013-03-08 13:42:00,
2013-03-08 08:52:00,31.0,30.0,30.07,NW,314,5.0,12.0,96,0.00,,,0.03,,2013-03-08 13:52:00,
2013-03-08 09:03:00,31.0,30.0,30.07,NE,37,6.0,12.0,96,0.00,,,0.03,,2013-03-08 14:03:00,
2013-03-08 09:12:00,31.0,30.0,30.07,NE,37,6.0,12.0,96,0.00,,,0.03,,2013-03-08 14:12:00,
2013-03-08 09:22:00,32.0,31.0,30.06,WNW,297,5.0,10.0,96,0.00,,,0.03,,2013-03-08 14:22:00,
2013-03-08 09:32:00,32.0,31.0,30.07,NNW,327,6.0,10.0,96,0.00,,,0.03,,2013-03-08 14:32:00,
2013-03-08 09:42:00,32.0,31.0,30.07,NNW,327,6.0,10.0,96,0.00,,,0.03,,2013-03-08 14:42:00,
2013-03-08 09:53:00,32.0,31.0,30.08,NNE,32,4.0,9.0,96,0.00,,,0.03,,2013-03-08 14:53:00,
2013-03-08 10:03:00,32.0,31.0,30.08,NE,37,3.0,7.0,96,0.00,,,0.03,,2013-03-08 15:03:00,
2013-03-08 10:12:00,32.0,31.0,30.08,NE,37,3.0,7.0,96,0.00,,,0.03,,2013-03-08 15:12:00,
2013-03-08 10:22:00,32.0,31.0,30.08,ENE,65,4.0,8.0,96,0.00,,,0.03,,2013-03-08 15:22:00,
2013-03-08 10:32:00,32.0,31.0,30.07,North,349,4.0,9.0,96,0.00,,,0.03,,2013-03-08 15:32:00,
2013-03-08 10:42:00,32.0,31.0,30.07,North,349,4.0,9.0,96,0.00,,,0.03,,2013-03-08 15:42:00,
2013-03-08 10:53:00,32.0,31.0,30.08,NNE,32,4.0,11.0,96,0.00,,,0.03,,2013-03-08 15:53:00,
2013-03-08 11:01:00,32.0,31.0,30.08,ENE,74,4.0,6.0,96,0.00,,,0.03,,2013-03-08 16:01:00,
2013-03-08 11:11:00,32.0,31.0,30.08,ENE,74,4.0,6.0,96,0.00,,,0.03,,2013-03-08 16:11:00,
2013-03-08 11:22:00,32.0,31.0,30.09,ENE,65,6.0,8.0,96,0.00,,,0.03,,2013-03-08 16:22:00,
2013-03-08 11:32:00,33.0,32.0,30.08,ENE,67,3.0,8.0,96,0.00,,,0.03,,2013-03-08 16:32:00,
2013-03-08 11:42:00,33.0,32.0,30.08,ENE,67,3.0,8.0,96,0.00,,,0.03,,2013-03-08 16:42:00,
2013-03-08 11:52:00,33.0,32.0,30.08,East,86,3.0,8.0,96,0.00,,,0.03,,2013-03-08 16:52:00,
2013-03-08 12:03:00,33.0,32.0,30.08,NE,49,3.0,8.0,96,0.00,,,0.03,,2013-03-08 17:03:00,
2013-03-08 12:12:00,33.0,32.0,30.08,NE,49,3.0,8.0,96,0.00,,,0.03,,2013-03-08 17:12:00,
2013-03-08 12:22:00,33.0,32.0,30.09,East,86,4.0,9.0,96,0.00,,,0.03,,2013-03-08 17:22:00,
2013-03-08 12:32:00,33.0,32.0,30.08,ENE,58,4.0,10.0,96,0.00,,,0.03,,2013-03-08 17:32:00,
2013-03-08 12:42:00,33.0,32.0,30.08,ENE,58,4.0,10.0,96,0.00,,,0.03,,2013-03-08 17:42:00,
2013-03-08 12:52:00,33.0,32.0,30.07,NE,47,3.0,8.0,96,0.00,,,0.03,,2013-03-08 17:52:00,
2013-03-08 13:02:00,34.0,33.0,30.06,NE,41,3.0,9.0,96,0.00,,,0.03,,2013-03-08 18:02:00,
2013-03-08 13:11:00,34.0,33.0,30.06,NE,41,3.0,9.0,96,0.00,,,0.03,,2013-03-08 18:11:00,
2013-03-08 13:22:00,34.0,33.0,30.06,ENE,60,3.0,5.0,97,0.00,,,0.03,,2013-03-08 18:22:00,
2013-03-08 13:32:00,35.0,34.0,30.06,NNE,27,3.0,7.0,97,0.00,,,0.03,,2013-03-08 18:32:00,
2013-03-08 13:42:00,35.0,34.0,30.06,NNE,27,3.0,7.0,97,0.00,,,0.03,,2013-03-08 18:42:00,
2013-03-08 13:52:00,35.0,34.0,30.07,ENE,58,3.0,9.0,97,0.00,,,0.03,,2013-03-08 18:52:00,
2013-03-08 14:01:00,36.0,35.0,30.08,NNE,14,5.0,10.0,96,0.00,,,0.03,,2013-03-08 19:01:00,
2013-03-08 14:11:00,36.0,35.0,30.08,NNE,14,5.0,10.0,96,0.00,,,0.03,,2013-03-08 19:11:00,
2013-03-08 14:22:00,36.0,35.0,30.09,ENE,60,5.0,10.0,95,0.00,,,0.03,,2013-03-08 19:22:00,
2013-03-08 14:32:00,36.0,34.0,30.09,NNW,327,3.0,9.0,94,0.00,,,0.03,,2013-03-08 19:32:00,
2013-03-08 14:42:00,36.0,34.0,30.09,NNW,327,3.0,9.0,94,0.00,,,0.03,,2013-03-08 19:42:00,
2013-03-08 14:52:00,36.0,34.0,30.10,ENE,60,4.0,7.0,93,0.00,,,0.03,,2013-03-08 19:52:00,
2013-03-08 15:01:00,36.0,34.0,30.10,ENE,58,2.0,7.0,92,0.00,,,0.03,,2013-03-08 20:01:00,
2013-03-08 15:11:00,36.0,34.0,30.10,ENE,58,2.0,7.0,92,0.00,,,0.03,,2013-03-08 20:11:00,
2013-03-08 15:22:00,37.0,35.0,30.10,ESE,121,4.0,9.0,91,0.00,,,0.03,,2013-03-08 20:22:00,
2013-03-08 15:32:00,36.0,33.0,30.10,ENE,75,5.0,7.0,90,0.01,,,0.04,,2013-03-08 20:32:00,
2013-03-08 15:42:00,36.0,33.0,30.10,ENE,75,5.0,7.0,90,0.01,,,0.04,,2013-03-08 20:42:00,
2013-03-08 15:53:00,37.0,35.0,30.09,East,80,1.0,4.0,91,0.03,,,0.06,,2013-03-08 20:53:00,
2013-03-08 16:02:00,37.0,34.0,30.10,NE,40,1.0,8.0,88,0.04,,,0.07,,2013-03-08 21:02:00,
2013-03-08 16:11:00,37.0,34.0,30.10,NE,40,1.0,8.0,88,0.04,,,0.07,,2013-03-08 21:11:00,
2013-03-08 16:22:00,38.0,34.0,30.10,NNW,332,1.0,4.0,87,0.06,,,0.08,,2013-03-08 21:22:00,
2013-03-08 16:32:00,38.0,34.0,30.11,ENE,72,1.0,5.0,86,0.05,,,0.09,,2013-03-08 21:32:00,
2013-03-08 16:42:00,38.0,34.0,30.11,ENE,72,1.0,5.0,86,0.05,,,0.09,,2013-03-08 21:42:00,
2013-03-08 16:52:00,38.0,34.0,30.12,ENE,68,1.0,3.0,86,0.05,,,0.10,,2013-03-08 21:52:00,
2013-03-08 17:01:00,38.0,34.0,30.13,East,84,1.0,3.0,85,0.04,,,0.11,,2013-03-08 22:01:00,
2013-03-08 17:11:00,38.0,34.0,30.13,East,84,1.0,3.0,85,0.04,,,0.11,,2013-03-08 22:11:00,
2013-03-08 17:22:00,38.0,34.0,30.14,ENE,58,1.0,3.0,84,0.03,,,0.10,,2013-03-08 22:22:00,
2013-03-08 17:32:00,39.0,35.0,30.14,NNE,33,1.0,4.0,84,0.03,,,0.11,,2013-03-08 22:32:00,
2013-03-08 17:42:00,39.0,35.0,30.14,NNE,33,1.0,4.0,84,0.03,,,0.11,,2013-03-08 22:42:00,
2013-03-08 17:53:00,39.0,34.0,30.14,East,86,2.0,6.0,82,0.03,,,0.12,,2013-03-08 22:53:00,
2013-03-08 18:02:00,39.0,34.0,30.14,NNE,14,3.0,6.0,81,0.02,,,0.12,,2013-03-08 23:02:00,
2013-03-08 18:12:00,39.0,34.0,30.14,NNE,14,3.0,6.0,81,0.02,,,0.12,,2013-03-08 23:12:00,
2013-03-08 18:22:00,39.0,34.0,30.16,NNE,30,1.0,4.0,81,0.03,,,0.13,,2013-03-08 23:22:00,
2013-03-08 18:32:00,39.0,34.0,30.17,NE,56,2.0,5.0,81,0.02,,,0.13,,2013-03-08 23:32:00,
2013-03-08 18:42:00,39.0,34.0,30.17,NE,56,2.0,5.0,81,0.02,,,0.13,,2013-03-08 23:42:00,
2013-03-08 18:53:00,39.0,33.0,30.17,NE,56,3.0,8.0,80,0.01,,,0.13,,2013-03-08 23:53:00,
2013-03-08 19:02:00,39.0,33.0,30.18,ENE,72,2.0,6.0,80,0.02,,,0.14,,2013-03-09 00:02:00,
2013-03-08 19:12:00,39.0,33.0,30.18,ENE,72,2.0,6.0,80,0.02,,,0.14,,2013-03-09 00:12:00,
2013-03-08 19:22:00,39.0,33.0,30.19,ENE,71,3.0,5.0,80,0.01,,,0.13,,2013-03-09 00:22:00,
2013-03-08 19:32:00,39.0,33.0,30.19,North,359,3.0,6.0,80,0.01,,,0.13,,2013-03-09 00:32:00,
2013-03-08 19:42:00,39.0,33.0,30.19,North,359,3.0,6.0,80,0.01,,,0.13,,2013-03-09 00:42:00,
2013-03-08 19:52:00,39.0,33.0,30.20,NE,39,3.0,5.0,79,0.02,,,0.14,,2013-03-09 00:52:00,
2013-03-08 20:02:00,39.0,33.0,30.20,ENE,68,2.0,5.0,79,0.01,,,0.14,,2013-03-09 01:02:00,
2013-03-08 20:12:00,39.0,33.0,30.21,NNE,25,2.0,3.0,78,0.01,,,0.14,,2013-03-09 01:12:00,
2013-03-08 20:22:00,39.0,33.0,30.21,NNE,25,2.0,3.0,78,0.01,,,0.14,,2013-03-09 01:22:00,
2013-03-08 20:32:00,39.0,33.0,30.21,NE,37,2.0,4.0,78,0.01,,,0.14,,2013-03-09 01:32:00,
2013-03-08 20:42:00,39.0,33.0,30.21,NE,37,2.0,4.0,78,0.01,,,0.14,,2013-03-09 01:42:00,
2013-03-08 20:52:00,39.0,32.0,30.22,ENE,65,2.0,6.0,77,0.00,,,0.14,,2013-03-09 01:52:00,
2013-03-08 21:01:00,38.0,31.0,30.22,ENE,64,2.0,6.0,77,0.00,,,0.14,,2013-03-09 02:01:00,
2013-03-08 21:11:00,38.0,31.0,30.22,ENE,64,2.0,6.0,77,0.00,,,0.14,,2013-03-09 02:11:00,
2013-03-08 21:21:00,38.0,31.0,30.22,NE,56,3.0,7.0,75,0.00,,,0.14,,2013-03-09 02:21:00,
2013-03-08 21:31:00,38.0,30.0,30.22,ENE,58,2.0,7.0,74,0.00,,,0.14,,2013-03-09 02:31:00,
2013-03-08 21:41:00,38.0,30.0,30.23,ENE,68,4.0,8.0,74,0.00,,,0.14,,2013-03-09 02:41:00,
2013-03-08 21:51:00,38.0,30.0,30.23,ENE,68,4.0,8.0,74,0.00,,,0.14,,2013-03-09 02:51:00,
2013-03-08 22:01:00,38.0,30.0,30.23,ENE,67,3.0,9.0,74,0.01,,,0.15,,2013-03-09 03:01:00,
2013-03-08 22:11:00,38.0,30.0,30.23,ENE,67,3.0,9.0,74,0.01,,,0.15,,2013-03-09 03:11:00,
2013-03-08 22:22:00,38.0,30.0,30.23,ENE,71,3.0,10.0,72,0.01,,,0.15,,2013-03-09 03:22:00,
2013-03-08 22:31:00,38.0,30.0,30.23,ENE,75,4.0,12.0,72,0.01,,,0.15,,2013-03-09 03:31:00,
2013-03-08 22:41:00,38.0,30.0,30.23,ENE,75,4.0,12.0,72,0.01,,,0.15,,2013-03-09 03:41:00,
2013-03-08 22:52:00,37.0,29.0,30.24,ENE,72,2.0,6.0,73,0.01,,,0.15,,2013-03-09 03:52:00,
2013-03-08 23:01:00,37.0,29.0,30.24,ENE,61,4.0,7.0,73,0.00,,,0.15,,2013-03-09 04:01:00,
2013-03-08 23:11:00,37.0,29.0,30.24,ENE,61,4.0,7.0,73,0.00,,,0.15,,2013-03-09 04:11:00,
2013-03-08 23:22:00,37.0,29.0,30.24,ENE,60,3.0,5.0,73,0.00,,,0.15,,2013-03-09 04:22:00,
2013-03-08 23:32:00,37.0,29.0,30.24,NE,40,3.0,6.0,73,0.00,,,0.15,,2013-03-09 04:32:00,
2013-03-08 23:42:00,37.0,29.0,30.24,NE,40,3.0,6.0,73,0.00,,,0.15,,2013-03-09 04:42:00,
2013-03-08 23:52:00,36.0,29.0,30.24,NE,53,3.0,5.0,74,0.00,,,0.15,,2013-03-09 04:52:00,